Regional Weather Roundup
Issued by NWS

Home | Current Version | Previous Version | Text Only | Print | Product List | Glossary On
Versions: 1 2 3 4 5 6 7 8 9 10 11 12 13 14 15 16 17 18 19 20 21 22 23 24 25 26 27 28 29 30 31 32 33 34 35 36 37 38 39 40 41 42 43 44 45 46 47 48 49 50
000
ASUS44 KOUN 282110
RWROK

WEATHER ROUNDUP FOR OKLAHOMA
NATIONAL WEATHER SERVICE NORMAN OK
400 PM CDT SUN AUG 28 2016

NOTE: "FAIR" INDICATES FEW OR NO CLOUDS BELOW 12,000 FEET WITH NO
      SIGNIFICANT WEATHER AND/OR OBSTRUCTIONS TO VISIBILITY.

OKZ001>007-009>012-014-015-017-282200-
NORTHWEST OKLAHOMA AND THE PANHANDLE

CITY           SKY/WX    TMP DP  RH WIND       PRES   REMARKS
GAGE           HVY RAIN  71  66  84 N13       30.07F
GUYMON         SUNNY     86  60  41 S14G20    30.06F
ENID/WOODRING  PTSUNNY   84  70  61 NE25      30.03F
$$

OKZ016-021>023-033>039-044-045-282200-
SOUTHWEST OKLAHOMA

CITY           SKY/WX    TMP DP  RH WIND       PRES   REMARKS
LAWTON/REGL    SUNNY     92  65  40 SE14      30.00F HX  94
LAWTON/FT SILL MOSUNNY   92  68  45 SE12      29.99F HX  96
FREDERICK      MOSUNNY   93  66  40 SE14      29.98F HX  96
CLINTON        MOSUNNY   90  65  43 SE13      30.04F HX  92
HOBART         TSTM      84  69  60 E9        30.02F
ALTUS AFB      MOSUNNY   92  64  38 SE12      29.99F HX  93
$$

OKZ018>020-024>031-282200-
CENTRAL OKLAHOMA

CITY           SKY/WX    TMP DP  RH WIND       PRES   REMARKS
OKLAHOMA CITY  MOSUNNY   92  65  40 E8G16     30.02F HX  94
OKC/WILEY POST SUNNY     93  64  38 SE13      30.02F HX  94
OKC/TINKER AFB MOSUNNY   91  66  43 SE12      30.02F HX  93
STILLWATER     SUNNY     90  67  46 SE8       30.02F HX  93
GUTHRIE        SUNNY     91  67  44 S8        30.01F HX  94
$$

OKZ008-013-054>072-282200-
NORTHEAST OKLAHOMA

CITY           SKY/WX    TMP DP  RH WIND       PRES   REMARKS
TULSA          MOSUNNY   95  66  38 E14       29.99F HX  98
TULSA/JONES    SUNNY     94  67  41 SE8       30.00F HX  97
PONCA CITY     PTSUNNY   80  68  66 E12       30.04F
BARTLESVILLE   MOSUNNY   95  66  38 VRB6      30.03F HX  98
MUSKOGEE       MOSUNNY   94  64  37 SE9G18    30.02F HX  95
$$

OKZ032-040>043-046>053-073>077-282200-
SOUTH CENTRAL/SOUTHEAST OKLAHOMA

CITY           SKY/WX    TMP DP  RH WIND       PRES   REMARKS
ARDMORE/DWNTWN PTSUNNY   90  63  40 SE8       30.00F HX  90
MCALESTER      CLOUDY    90  69  50 E10G18    30.02F HX  94
$$





USA.gov is the U.S. government's official web portal to all federal, state and local government web resources and services.